COSMOS 2520

Last updated on Mon Sep 15 2025 00:02:49 GMT+0000 (Coordinated Universal Time)

1 42907U 17046A 25257.23751669 .00000125 00000+0 00000+0 0 9996 2 42907 0.0265 107.0065 0000758 191.3452 185.6381 1.00274155 29638
UTC large
Height (km)
Speed (km/s)
/
Latitude / Longitude
Inclination (degrees)
Orbital Period (minutes)
Azimuth
Elevation
Range (km)
Doppler Factor

Next 0 passes for location: London (51.5072 / 0.1276)

Sorry there are no passes over London.